Snowfall_Accumulation
0.0 0.0 0.0 0.0 0.0 0.0 0.0 0.0 0.0 0.0 0.0 0.0 0.0 0.0 0.0 0.0 0.0 0.0 0.0 0.0 0.0 0.0 0.0 0.0 0.0 0.0 0.0 0.0 0.0 0.0 0.0 0.0 0.0 0.0 0.0 0.0 0.0 0.0 0.0 0.0 0.0 0.0 0.0 0.0 0.0 0.0 0.0 0.0 0.0
0.0 0.0 0.0 0.0 0.0 0.0 0.0 0.0 0.0 0.0 0.0 0.0 0.0 0.1 0.1 0.0 0.0 0.0 0.0 0.0 0.0 0.0 0.0 0.0 0.0 0.0 0.0 0.0 0.0 0.0 0.0 0.0 0.0 0.0 0.0 0.0 0.0 0.0 0.0 0.0 0.0 0.0 0.0 0.0 0.0 0.0 0.0 0.0 0.0
0.0 0.0 0.0 0.0 0.0 0.0 0.1 0.0 0.0 0.0 0.0 0.0 0.0 0.1 0.1 0.1 0.0 0.0 0.0 0.0 0.0 0.0 0.0 0.0 0.0 0.0 0.0 0.0 0.0 0.0 0.0 0.0 0.0 0.0 0.0 0.0 0.0 0.0 0.0 0.0 0.0 0.0 0.0 0.0 0.0 0.0 0.0 0.0 0.0
0.0 0.0 0.0 0.0 0.0 0.1 0.1 0.1 0.0 0.0 0.0 0.0 0.0 0.1 0.0 0.0 0.0 0.0 0.0 0.0 0.0 0.0 0.0 0.0 0.0 0.0 0.0 0.0 0.0 0.0 0.0 0.0 0.0 0.0 0.0 0.0 0.0 0.0 0.0 0.0 0.0 0.0 0.0 0.0 0.0 0.0 0.0 0.0 0.0
0.0 0.0 0.0 0.1 0.0 0.0 0.1 0.1 0.0 0.0 0.0 0.0 0.0 0.1 0.1 0.0 0.0 0.0 0.0 0.0 0.0 0.0 0.0 0.0 0.0 0.0 0.0 0.0 0.0 0.0 0.0 0.0 0.0 0.0 0.0 0.0 0.0 0.0 0.0 0.0 0.0 0.0 0.0 0.0 0.0 0.0 0.0 0.0 0.0
0.0 0.0 0.3 0.3 0.1 0.0 0.0 0.1 0.0 0.0 0.0 0.0 0.0 0.1 0.0 0.0 0.0 0.0 0.0 0.0 0.0 0.0 0.0 0.0 0.0 0.0 0.0 0.0 0.0 0.0 0.0 0.0 0.0 0.0 0.0 0.0 0.0 0.0 0.0 0.0 0.0 0.0 0.0 0.0 0.0 0.0 0.0 0.0 0.0
0.0 0.0 0.6 0.5 0.4 0.1 0.0 0.0 0.0 0.0 0.0 0.0 0.0 0.1 0.1 0.0 0.0 0.0 0.0 0.0 0.0 0.0 0.0 0.0 0.0 0.0 0.0 0.0 0.0 0.0 0.0 0.0 0.0 0.0 0.0 0.0 0.0 0.0 0.0 0.0 0.0 0.0 0.0 0.0 0.0 0.0 0.0 0.0 0.0
0.0 0.0 0.7 0.4 0.4 0.1 0.1 0.1 0.1 0.0 0.0 0.0 0.0 0.0 0.1 0.0 0.0 0.0 0.0 0.0 0.0 0.0 0.0 0.0 0.0 0.0 0.0 0.0 0.0 0.0 0.0 0.0 0.0 0.0 0.0 0.0 0.0 0.0 0.0 0.0 0.0 0.0 0.0 0.0 0.0 0.0 0.0 0.0 0.0
0.0 0.7 1.3 0.6 0.3 0.2 0.1 0.2 0.1 0.0 0.0 0.0 0.0 0.1 0.0 0.0 0.0 0.0 0.0 0.0 0.0 0.0 0.0 0.0 0.0 0.0 0.0 0.0 0.0 0.0 0.0 0.0 0.0 0.0 0.0 0.0 0.0 0.0 0.0 0.0 0.0 0.0 0.0 0.0 0.0 0.0 0.0 0.0 0.0
0.0 1.9 1.3 0.2 0.1 0.1 0.1 0.2 0.1 0.1 0.1 0.1 0.0 0.0 0.0 0.0 0.0 0.0 0.0 0.0 0.0 0.0 0.0 0.0 0.0 0.0 0.0 0.0 0.0 0.0 0.0 0.0 0.0 0.0 0.0 0.0 0.0 0.0 0.0 0.0 0.0 0.0 0.0 0.0 0.0 0.0 0.0 0.0 0.0
0.2 1.0 0.6 0.3 0.1 0.1 0.1 0.1 0.1 0.1 0.2 0.2 0.2 0.2 0.0 0.0 0.0 0.0 0.1 0.0 0.0 0.0 0.0 0.0 0.0 0.0 0.0 0.0 0.0 0.0 0.0 0.0 0.0 0.0 0.0 0.0 0.0 0.0 0.0 0.0 0.0 0.0 0.0 0.0 0.0 0.0 0.0 0.0 0.0
0.6 0.4 0.5 0.4 0.1 0.1 0.1 0.1 0.1 0.2 0.4 0.2 0.2 0.2 0.0 0.0 0.0 0.0 0.0 0.0 0.0 0.0 0.0 0.0 0.0 0.0 0.0 0.0 0.0 0.0 0.0 0.0 0.0 0.0 0.0 0.0 0.0 0.0 0.0 0.0 0.0 0.0 0.0 0.0 0.0 0.0 0.0 0.0 0.0
1.0 0.5 0.3 0.1 0.1 0.2 0.1 0.1 0.1 0.2 0.2 0.1 0.1 0.1 0.0 0.0 0.0 0.0 0.0 0.0 0.0 0.0 0.0 0.0 0.0 0.0 0.0 0.0 0.0 0.0 0.0 0.0 0.0 0.0 0.0 0.0 0.0 0.0 0.0 0.0 0.0 0.0 0.0 0.0 0.0 0.0 0.0 0.0 0.0
0.7 0.5 0.3 0.2 0.2 0.2 0.2 0.1 0.2 0.3 0.2 0.2 0.1 0.1 0.1 0.0 0.0 0.0 0.0 0.0 0.0 0.0 0.0 0.0 0.0 0.0 0.0 0.0 0.0 0.0 0.0 0.0 0.0 0.0 0.0 0.0 0.0 0.0 0.0 0.0 0.0 0.0 0.0 0.0 0.0 0.0 0.0 0.0 0.0
0.3 0.7 0.5 0.3 0.2 0.2 0.2 0.3 0.4 0.4 0.4 0.3 0.2 0.1 0.1 0.0 0.0 0.0 0.0 0.0 0.0 0.0 0.0 0.0 0.0 0.0 0.0 0.0 0.0 0.0 0.0 0.0 0.0 0.1 0.0 0.0 0.0 0.0 0.0 0.0 0.0 0.0 0.0 0.0 0.0 0.0 0.0 0.0 0.0
0.6 1.6 2.2 0.7 0.3 0.2 1.2 2.7 0.5 0.4 0.3 0.2 0.1 0.1 0.1 0.0 0.0 0.0 0.0 0.0 0.0 0.0 0.0 0.0 0.0 0.0 0.0 0.0 0.0 0.0 0.0 0.0 0.0 0.0 0.0 0.0 0.0 0.0 0.0 0.0 0.0 0.0 0.0 0.0 0.0 0.0 0.0 0.0 0.0
4.1 4.3 2.7 1.4 0.3 0.5 1.9 2.4 0.6 0.3 0.2 0.2 0.2 0.2 0.1 0.1 0.0 0.0 0.1 0.0 0.0 0.0 0.0 0.0 0.0 0.0 0.0 0.0 0.0 0.0 0.0 0.0 0.0 0.0 0.0 0.0 0.0 0.0 0.0 0.0 0.1 0.0 0.0 0.0 0.0 0.0 0.0 0.0 0.0
5.1 3.7 2.3 1.5 0.7 1.1 2.0 1.7 0.5 0.2 0.1 0.1 0.1 0.1 0.1 0.2 0.0 0.0 0.0 0.0 0.0 0.0 0.0 0.0 0.0 0.0 0.0 0.0 0.0 0.0 0.0 0.0 0.0 0.0 0.1 0.1 0.0 0.0 0.0 0.0 0.0 0.0 0.0 0.0 0.0 0.1 0.1 0.0 0.0
3.3 3.7 2.9 1.5 0.5 1.7 1.9 1.2 0.5 0.2 0.1 0.2 0.1 0.1 0.1 0.1 0.1 0.0 0.0 0.0 0.0 0.0 0.0 0.0 0.0 0.0 0.0 0.0 0.0 0.0 0.0 0.0 0.0 0.0 0.1 0.0 0.1 0.0 0.0 0.0 0.0 0.0 0.0 0.2 0.0 0.1 0.2 0.1 0.1
3.7 5.1 3.9 2.3 1.0 1.9 1.9 1.1 0.5 0.2 0.3 0.3 0.3 0.3 0.3 0.2 0.0 0.0 0.0 0.0 0.0 0.0 0.0 0.0 0.0 0.0 0.0 0.0 0.0 0.0 0.0 0.0 0.0 0.0 0.0 0.2 0.1 0.0 0.0 0.0 0.0 0.1 0.0 0.2 0.1 0.2 0.4 0.3 0.1
4.5 4.3 3.7 3.4 2.3 1.8 3.1 2.1 0.9 0.4 0.3 0.2 0.1 0.2 0.3 0.4 0.5 0.0 0.0 0.0 0.4 0.0 0.0 0.0 0.0 0.0 0.0 0.0 0.0 0.0 0.0 0.0 0.0 0.0 0.0 0.1 0.2 0.1 0.0 0.0 0.0 0.0 0.0 0.2 0.2 0.2 0.6 0.8 0.5
5.2 1.9 2.6 3.5 5.8 6.1 4.6 6.8 1.3 0.9 0.7 0.5 0.3 0.2 0.2 0.2 0.4 0.2 0.1 0.1 0.1 0.6 0.0 0.3 0.0 0.0 0.0 0.0 0.0 0.0 0.0 0.0 0.0 0.0 0.0 0.1 0.1 0.1 0.1 0.0 0.0 0.0 0.0 0.2 0.2 0.2 0.5 1.2 1.4
3.5 1.6 2.4 3.7 6.8 8.6 4.7 7.2 2.4 1.1 1.3 1.1 0.5 0.3 0.3 0.2 0.3 0.3 0.2 0.2 0.1 0.6 0.6 0.4 0.1 0.0 0.0 0.0 0.0 0.0 0.0 0.0 0.0 0.0 0.0 0.0 0.1 0.1 0.1 0.0 0.0 0.1 0.1 0.1 0.2 0.3 0.5 1.0 1.7
2.1 2.5 3.1 4.7 9.1 16.8 5.4 5.8 3.8 2.5 2.7 2.0 1.0 0.7 0.7 0.6 0.4 0.3 0.1 0.1 0.1 0.0 0.1 0.1 0.1 0.1 0.0 0.0 0.0 0.0 0.1 0.0 0.0 0.0 0.0 0.0 0.1 0.1 0.1 0.1 0.0 0.1 0.2 0.3 0.3 0.5 0.7 0.9 1.2
4.8 11.3 21.4 23.3 23.7 13.7 2.2 4.1 4.2 2.7 2.5 2.8 2.9 2.2 1.5 1.0 0.6 0.5 0.5 0.4 0.2 0.1 0.2 0.2 0.2 0.1 0.1 0.1 0.2 0.0 0.3 0.3 0.0 0.0 0.0 0.1 0.2 0.2 0.2 0.2 0.1 0.1 0.2 0.4 0.6 0.7 0.9 0.9 1.3
5.1 9.5 16.9 16.0 10.7 4.8 2.8 4.2 3.7 3.0 2.5 2.4 2.4 2.3 1.4 0.8 0.5 0.6 0.6 0.6 0.2 0.2 0.2 0.2 0.2 0.2 0.1 0.1 0.2 0.2 0.0 0.3 0.0 0.0 0.1 0.1 0.2 0.1 0.2 0.3 0.2 0.1 0.3 0.5 0.8 0.8 0.9 1.0 1.4
6.6 7.7 6.3 10.9 8.5 5.6 4.5 3.7 2.8 1.9 1.6 1.8 2.2 2.0 1.9 1.2 0.9 0.6 0.9 0.8 0.8 0.5 0.4 0.5 0.3 0.3 0.2 0.1 0.1 0.2 0.2 0.2 0.4 0.1 0.1 0.1 0.1 0.1 0.3 0.3 0.4 0.5 0.7 0.7 0.9 1.2 1.2 1.3 1.5
4.0 5.8 8.1 15.0 13.8 8.2 4.9 3.5 4.3 3.2 2.4 2.1 2.3 2.8 2.4 2.0 1.2 0.9 0.8 1.0 0.6 0.7 0.6 0.4 0.4 0.4 0.3 0.2 0.1 0.1 0.2 0.3 0.3 0.2 0.2 0.2 0.2 0.2 0.4 0.3 0.6 0.5 0.8 0.9 1.1 1.4 1.4 1.6 1.6
6.4 8.3 10.2 11.9 10.1 9.0 6.9 5.5 5.4 4.4 3.9 3.4 3.0 2.9 2.9 2.8 2.6 1.8 1.1 0.9 0.9 0.6 0.5 0.6 0.6 0.3 0.4 0.3 0.3 0.2 0.3 0.2 0.3 0.4 0.4 0.4 0.4 0.6 0.6 0.9 1.0 1.3 1.3 1.2 1.3 1.5 1.7 1.8 1.7
6.4 8.1 9.6 13.5 10.3 6.2 6.7 6.2 4.1 3.3 3.5 3.4 3.2 2.9 2.7 3.0 3.3 2.9 2.1 1.6 0.9 1.2 1.1 0.9 0.9 0.8 0.7 0.4 0.7 0.6 0.4 0.6 0.7 0.7 0.6 0.6 0.6 0.8 1.0 1.5 1.3 1.5 1.8 1.7 1.9 2.2 2.1 2.1 2.2